Weather History for KMWT - November, 2012

Change the Weather History Date:

Monday, November 12, 2012

  Actual Average (KHOT) Record (KHOT)
Temperature  
Mean Temperature 42 °F -  
Max Temperature 55 °F 64 °F 83 °F (1955)
Min Temperature 28 °F 39 °F 23 °F (1976)
Degree Days  
Heating Degree Days 22    
Moisture  
Dew Point 28 °F    
Average Humidity 66    
Maximum Humidity 96    
Minimum Humidity 25    
Precipitation  
Precipitation 0.00 in - - ()
Sea Level Pressure  
Sea Level Pressure 30.40 in    
Wind  
Wind Speed 5 mph (NW)    
Max Wind Speed 10 mph    
Max Gust Speed 16 mph    
Visibility 10 miles    
Events      
Averages and records for this station are not official NWS values.
T = Trace of Precipitation, MM = Missing Value Source: NWS Daily Summary

Daily Weather History Graph

Daily Weather History Graph

Search for Another Location

Airport or City:

Trip Planner

Search our weather history database for the weather conditions in past years. The results will help you decide how hot, cold, wet, or windy it might be!

Date:

Astronomy

Nov. 12, 2012 Rise Set
Actual Time 6:45 AM CST 5:11 PM CST
Civil Twilight 6:18 AM CST 5:37 PM CST
Nautical Twilight 5:48 AM CST 6:08 PM CST
Astronomical Twilight 5:18 AM CST 6:37 PM CST
Moon 5:13 AM CST (11/12) 4:15 PM CST (11/12)
Length of Visible Light 11h 18m
Length of Day
10h 25m
Waning Crescent, 2% of the Moon is Illuminated
Nov 12
Waning Crescent
Nov 13
New
Nov 20
First Quarter
Nov 28
Full
Dec 6
Last Quarter

Hourly Weather History & Observations

Time (CST) Temp. Windchill Dew Point Humidity Pressure Visibility Wind Dir Wind Speed Gust Speed Precip Events Conditions
12:53 AM 41.0 °F 38.0 °F 37.0 °F 86% 30.20 in 10.0 mi Variable 4.6 mph - N/A   Overcast
1:53 AM 39.9 °F 33.9 °F 36.0 °F 86% 30.22 in 10.0 mi NW 9.2 mph 16.1 mph N/A   Overcast
2:49 AM 39.2 °F 32.5 °F 33.8 °F 81% 30.23 in 10.0 mi North 10.4 mph 16.1 mph N/A   Overcast
2:53 AM 39.0 °F 33.4 °F 34.0 °F 82% 30.25 in 10.0 mi NW 8.1 mph 16.1 mph N/A   Overcast
3:53 AM 37.0 °F 31.6 °F 32.0 °F 82% 30.28 in 10.0 mi NNW 6.9 mph - N/A   Overcast
4:16 AM 37.4 °F 32.1 °F 30.2 °F 75% 30.27 in 10.0 mi NW 6.9 mph - N/A   Scattered Clouds
4:53 AM 36.0 °F 30.3 °F 30.9 °F 82% 30.32 in 10.0 mi Variable 6.9 mph - N/A   Clear
5:53 AM 34.0 °F 31.0 °F 30.0 °F 85% 30.35 in 10.0 mi NNW 3.5 mph - N/A   Clear
6:53 AM 33.1 °F 28.7 °F 28.9 °F 85% 30.39 in 10.0 mi Variable 4.6 mph - N/A   Clear
7:53 AM 35.1 °F 32.2 °F 28.0 °F 76% 30.44 in 10.0 mi Variable 3.5 mph - N/A   Clear
8:53 AM 37.9 °F 33.5 °F 27.0 °F 65% 30.47 in 10.0 mi Variable 5.8 mph - N/A   Clear
9:53 AM 42.1 °F 39.2 °F 21.9 °F 45% 30.47 in 10.0 mi Variable 4.6 mph - N/A   Clear
10:53 AM 45.0 °F - 21.9 °F 40% 30.46 in 10.0 mi Calm Calm - N/A   Clear
11:53 AM 48.0 °F - 19.9 °F 33% 30.44 in 10.0 mi Variable 3.5 mph - N/A   Clear
12:53 PM 51.1 °F - 21.9 °F 32% 30.42 in 10.0 mi Variable 4.6 mph - N/A   Clear
1:53 PM 54.0 °F - 19.0 °F 25% 30.42 in 10.0 mi Calm Calm - N/A   Clear
2:53 PM 55.0 °F - 19.9 °F 25% 30.41 in 10.0 mi NW 6.9 mph 16.1 mph N/A   Clear
3:53 PM 54.0 °F - 19.0 °F 25% 30.43 in 10.0 mi Variable 3.5 mph - N/A   Clear
4:53 PM 48.9 °F - 24.1 °F 38% 30.45 in 10.0 mi Calm Calm - N/A   Clear
5:53 PM 42.1 °F - 26.1 °F 53% 30.46 in 10.0 mi Calm Calm - N/A   Clear
6:53 PM 37.9 °F - 28.9 °F 70% 30.47 in 10.0 mi Calm Calm - N/A   Clear
7:53 PM 35.1 °F - 30.9 °F 85% 30.48 in 10.0 mi Calm Calm - N/A   Clear
8:53 PM 33.1 °F - 30.0 °F 89% 30.48 in 10.0 mi Calm Calm - N/A   Clear
9:53 PM 30.9 °F - 28.9 °F 92% 30.50 in 10.0 mi Calm Calm - N/A   Clear
10:53 PM 30.0 °F - 28.9 °F 96% 30.50 in 10.0 mi Calm Calm - N/A   Clear
11:53 PM 28.9 °F - 28.0 °F 96% 30.51 in 10.0 mi Calm Calm - N/A   Clear